FW7230 Weather Reports


Display with metric or nautical units.
time (UTC)temp
F
wind
direction
speed
MPH
gust
MPH
rain 1hr
in
rain 24hr
in
rain mn
in
humidity
%
barometer
mb
20260902041352 78 205 0.0 0.0 0.00 0.00 0.00 69 1014.1
20260902040329 78 205 0.0 1.0 0.00 0.00 0.00 68 1013.9
20260902035336 79 205 0.0 2.0 0.00 0.00 0.00 68 1013.9
20260902034322 79 204 0.0 2.0 0.00 0.00 0.00 68 1013.9
20260902033322 80 210 1.0 2.0 0.00 0.00 0.00 67 1013.8
20260902032329 80 208 1.0 4.0 0.00 0.00 0.00 67 1013.7
20260902031335 80 204 1.0 3.0 0.00 0.00 0.00 66 1013.6
20260902030334 81 219 1.0 2.0 0.00 0.00 0.00 65 1013.5
20260902025939 81 185 0.0 3.0 0.00 0.00 0.00 64 1013.4
20260902024329 82 219 1.0 4.0 0.00 0.00 0.00 63 1013.4
20260902023327 82 208 1.0 3.0 0.00 0.00 0.00 63 1013.2
20260902022332 83 195 2.0 4.0 0.00 0.00 0.00 62 1013.1
20260902021339 83 175 2.0 7.0 0.00 0.00 0.00 62 1012.9
20260902020339 83 202 1.0 5.0 0.00 0.00 0.00 62 1012.8
20260902015325 83 203 3.0 6.0 0.00 0.00 0.00 62 1012.8
20260902014332 83 155 2.0 5.0 0.00 0.00 0.00 62 1012.8
20260902013331 84 153 2.0 5.0 0.00 0.00 0.00 62 1012.8
20260902012359 84 191 1.0 3.0 0.00 0.00 0.00 61 1012.7
20260902011327 85 205 0.0 4.0 0.00 0.00 0.00 60 1012.7
20260902010324 86 204 0.0 3.0 0.00 0.00 0.00 58 1012.6
20260902005322 88 200 0.0 2.0 0.00 0.00 0.00 55 1012.7
20260902004350 90 130 0.0 2.0 0.00 0.00 0.00 52 1012.6
20260902003329 92 141 0.0 2.0 0.00 0.00 0.00 49 1012.6
20260902002334 94 189 0.0 3.0 0.00 0.00 0.00 47 1012.6
20260902001321 95 198 1.0 4.0 0.00 0.00 0.00 47 1012.7
20260902000339 96 208 1.0 4.0 0.00 0.00 0.00 46 1012.9
20260901235320 97 234 2.0 3.0 0.00 0.00 0.00 45 1012.9
20260901234329 97 200 2.0 6.0 0.00 0.00 0.00 45 1012.9
20260901233345 97 211 2.0 8.0 0.00 0.00 0.00 46 1013.0
20260901232326 97 248 3.0 7.0 0.00 0.00 0.00 45 1013.1
20260901231441 97 201 5.0 10.0 0.00 0.00 0.00 44 1013.0
20260901230711 97 207 3.0 8.0 0.00 0.00 0.00 44 1013.1
20260901225327 97 203 5.0 11.0 0.00 0.00 0.00 43 1013.1
20260901224324 97 211 7.0 12.0 0.00 0.00 0.00 41 1013.1
20260901223323 97 217 6.0 13.0 0.00 0.00 0.00 42 1013.1
20260901222328 98 208 8.0 13.0 0.00 0.00 0.00 41 1013.0
20260901221336 98 214 8.0 13.0 0.00 0.00 0.00 40 1013.0
20260901220333 98 203 10.0 15.0 0.00 0.00 0.00 39 1013.1
20260901215322 98 181 6.0 14.0 0.00 0.00 0.00 40 1013.2
20260901214328 98 226 8.0 16.0 0.00 0.00 0.00 39 1013.2
20260901213345 99 215 5.0 13.0 0.00 0.00 0.00 42 1013.2
20260901212326 99 195 8.0 14.0 0.00 0.00 0.00 40 1013.2
20260901211339 99 250 6.0 16.0 0.00 0.00 0.00 42 1013.2
20260901210358 99 172 8.0 15.0 0.00 0.00 0.00 40 1013.3
20260901205324 99 166 7.0 13.0 0.00 0.00 0.00 41 1013.4
20260901204331 99 184 8.0 13.0 0.00 0.00 0.00 40 1013.4
20260901203329 99 211 7.0 14.0 0.00 0.00 0.00 42 1013.7
20260901202332 99 201 6.0 15.0 0.00 0.00 0.00 42 1013.8
20260901201339 99 211 8.0 15.0 0.00 0.00 0.00 40 1013.9
20260901200337 99 195 5.0 11.0 0.00 0.00 0.00 43 1014.0
20260901195710 99 217 6.0 13.0 0.00 0.00 0.00 43 1014.1
20260901194940 99 218 8.0 14.0 0.00 0.00 0.00 42 1014.1
20260901193347 98 169 8.0 12.0 0.00 0.00 0.00 43 1014.2
20260901192344 99 126 7.0 14.0 0.00 0.00 0.00 44 1014.4
20260901191327 98 201 6.0 12.0 0.00 0.00 0.00 44 1014.5
20260901190324 98 215 6.0 11.0 0.00 0.00 0.00 43 1014.7
20260901185329 98 207 5.0 12.0 0.00 0.00 0.00 43 1014.7
20260901184324 98 235 7.0 12.0 0.00 0.00 0.00 44 1014.8
20260901183342 97 200 7.0 13.0 0.00 0.00 0.00 44 1015.0
20260901182329 97 238 5.0 11.0 0.00 0.00 0.00 46 1015.0
20260901181334 96 231 6.0 13.0 0.00 0.00 0.00 45 1015.1
20260901180332 96 250 6.0 11.0 0.00 0.00 0.00 46 1015.2
20260901175943 95 201 6.0 12.0 0.00 0.00 0.00 48 1015.3
20260901173322 95 205 7.0 11.0 0.00 0.00 0.00 48 1015.4
20260901172326 95 208 7.0 11.0 0.00 0.00 0.00 48 1015.5
20260901171333 94 200 6.0 11.0 0.00 0.00 0.00 49 1015.5
20260901170329 94 205 6.0 11.0 0.00 0.00 0.00 50 1015.3
20260901165334 94 131 4.0 11.0 0.00 0.00 0.00 51 1015.3
20260901164321 94 180 5.0 10.0 0.00 0.00 0.00 52 1015.4
20260901163340 93 212 5.0 8.0 0.00 0.00 0.00 52 1015.4
20260901162321 92 193 5.0 11.0 0.00 0.00 0.00 53 1015.5
20260901161943 92 203 4.0 11.0 0.00 0.00 0.00 54 1015.6
20260901160337 91 218 5.0 10.0 0.00 0.00 0.00 55 1015.7
20260901155325 90 240 6.0 10.0 0.00 0.00 0.00 54 1015.7
20260901154338 90 195 5.0 9.0 0.00 0.00 0.00 57 1015.7
20260901153334 89 155 5.0 7.0 0.00 0.00 0.00 57 1015.7
20260901152320 88 221 4.0 7.0 0.00 0.00 0.00 58 1015.7
20260901151325 87 204 4.0 7.0 0.00 0.00 0.00 63 1015.7
20260901150323 86 197 5.0 10.0 0.00 0.00 0.00 61 1015.7
20260901145331 85 198 4.0 6.0 0.00 0.00 0.00 63 1015.8
20260901144332 84 223 3.0 6.0 0.00 0.00 0.00 66 1015.8
20260901143328 83 211 4.0 7.0 0.00 0.00 0.00 67 1015.8
20260901142336 83 191 3.0 7.0 0.00 0.00 0.00 67 1015.9
20260901141322 82 205 3.0 6.0 0.00 0.00 0.00 68 1015.9
20260901140319 81 224 3.0 5.0 0.00 0.00 0.00 69 1015.9
20260901135322 80 222 1.0 6.0 0.00 0.00 0.00 74 1016.0
20260901134327 79 233 2.0 4.0 0.00 0.00 0.00 75 1016.1
20260901134214 78 226 1.0 4.0 0.00 0.00 0.00 75 1016.1
20260901132355 78 204 3.0 6.0 0.00 0.00 0.00 74 1016.0
20260901131321 77 228 0.0 4.0 0.00 0.00 0.00 80 1016.0
20260901130341 75 221 1.0 3.0 0.00 0.00 0.00 84 1016.0
20260901125320 73 222 1.0 3.0 0.00 0.00 0.00 88 1015.9
20260901124348 72 224 1.0 2.0 0.00 0.00 0.00 91 1015.9
20260901123346 70 300 0.0 0.0 0.00 0.00 0.00 92 1015.7
20260901122326 69 300 0.0 1.0 0.00 0.00 0.00 93 1015.7
20260901121443 68 300 0.0 0.0 0.00 0.00 0.00 94 1015.7
20260901115326 69 300 0.0 0.0 0.00 0.00 0.00 94 1015.6
20260901114334 69 300 0.0 0.0 0.00 0.00 0.00 95 1015.4
20260901113331 68 300 0.0 0.0 0.00 0.00 0.00 97 1015.4
20260901112339 68 300 0.0 0.0 0.00 0.00 0.00 97 1015.3
20260901112213 68 300 0.0 1.0 0.00 0.00 0.00 97 1015.3
20260901110329 68 300 1.0 1.0 0.00 0.00 0.00 97 1015.4
20260901105355 68 300 1.0 2.0 0.00 0.00 0.00 98 1015.3
20260901104320 68 300 1.0 1.0 0.00 0.00 0.00 97 1015.3
20260901103319 68 300 0.0 0.0 0.00 0.00 0.00 97 1015.4
20260901102326 68 300 0.0 0.0 0.00 0.00 0.00 97 1015.4
20260901101329 68 300 0.0 0.0 0.00 0.00 0.00 97 1015.2
20260901100328 69 300 0.0 1.0 0.00 0.00 0.00 97 1015.1
20260901095334 69 300 0.0 0.0 0.00 0.00 0.00 96 1015.1
20260901094320 69 300 1.0 1.0 0.00 0.00 0.00 96 1015.0
20260901092322 69 300 0.0 1.0 0.00 0.00 0.00 96 1014.9
20260901091348 70 300 1.0 1.0 0.00 0.00 0.00 96 1014.9
20260901090326 70 300 0.0 1.0 0.00 0.00 0.00 96 1015.0
20260901085330 70 300 1.0 2.0 0.00 0.00 0.00 96 1014.9
20260901084339 70 300 2.0 2.0 0.00 0.00 0.00 96 1014.8
20260901083338 71 300 1.0 2.0 0.00 0.00 0.00 96 1014.8
20260901082320 71 300 1.0 1.0 0.00 0.00 0.00 95 1014.8
20260901081324 71 300 0.0 1.0 0.00 0.00 0.00 95 1014.8
20260901080340 71 300 0.0 1.0 0.00 0.00 0.00 94 1014.9
20260901075326 71 300 1.0 2.0 0.00 0.00 0.00 94 1014.9
20260901074334 72 300 1.0 2.0 0.00 0.00 0.00 94 1014.8
20260901073332 72 300 1.0 1.0 0.00 0.00 0.00 93 1014.8
20260901072337 72 299 1.0 2.0 0.00 0.00 0.00 94 1014.7
20260901071324 72 252 0.0 0.0 0.00 0.00 0.00 92 1014.8
20260901070343 72 229 0.0 0.0 0.00 0.00 0.00 91 1014.9
20260901065323 73 229 0.0 0.0 0.00 0.00 0.00 88 1015.0
20260901064331 74 229 0.0 0.0 0.00 0.00 0.00 87 1015.1
20260901064214 75 229 0.0 0.0 0.00 0.00 0.00 86 1015.0
20260901062320 76 229 0.0 0.0 0.00 0.00 0.00 82 1015.0
20260901061326 77 229 0.0 0.0 0.00 0.00 0.00 82 1015.1
20260901060324 78 229 0.0 0.0 0.00 0.00 0.00 82 1015.1
20260901055330 78 229 0.0 0.0 0.00 0.00 0.00 82 1015.1
20260901054716 78 229 0.0 0.0 0.00 0.00 0.00 81 1015.1
20260901053401 79 229 0.0 0.0 0.00 0.00 0.00 81 1015.1
20260901052321 79 217 0.0 0.0 0.00 0.00 0.00 81 1015.0
20260901051329 79 217 0.0 0.0 0.00 0.00 0.00 80 1014.9
20260901050328 79 151 0.0 0.0 0.00 0.00 0.00 80 1014.9
20260901045326 79 152 1.0 2.0 0.00 0.00 0.00 80 1014.8
20260901044331 79 121 1.0 4.0 0.00 0.00 0.00 81 1014.8
20260901043351 79 109 1.0 4.0 0.00 0.00 0.00 81 1014.7
20260901042334 79 94 2.0 5.0 0.00 0.00 0.00 82 1014.7